Zurück zum Katalog

STARLINK-34994

AktivKommunikationVLEO
NORAD 65924·PAYLOAD·🇺🇸 United States

Gestartet Oct 8, 2025 von Vandenberg Space Force Base

Loading…

Nächste Überflüge (nächste 24 Stunden)

TLE

AktuellSource: CelesTrak SupGP

Epoche: Sep 14, 2026, 22:39 UTC

1 65924C 25225Q   26257.94423611 -.00011189  00000+0 -33058-3 0  2574
2 65924  53.1597   3.3911 0001107  74.3800 126.4658 15.34397400    15

Verfolge STARLINK-34994 in Echtzeit mit AllMySat

Download on the App Store